Location: Cosy Dell
(34.2789°N, 117.4537°W)
Time: 11:33:50
(UTC+00:00)

Cosmos 1908 Rocket - Pass Details

Date: 14 July 2020
Orbit: 605 x 633 km, 82.5° (Epoch: 08 August)

Event Time Altitude Azimuth Distance (km) Brightness Sun altitude
Exits shadow 11:11:47 34° 234° (SW) 1,050 4.2 -17.3°
Maximum altitude 11:13:11 45° 279° (W) 868 4.0 -17.1°
Drops below altitude 10° 11:17:29 10° 353° (N) 2,018 6.6 -16.4°
Sets 11:19:48 0° 359° (N) 2,927 7.6 -16.1°
